• In Latvia
  • List of Countries
  • For 7 days
  • Water Temperature
  • Satellite Maps
  • Weather Map
  • Weather Widgets
  • user-avatar
    Login

    Hourly Weather Korfu

    Today, 13 December, Wednesday

    Time Temperature Precipitation Wind Pressure Humidity
    00:00 +12°C° 0.1 mm 5 mps 763 mmHg 90%
    01:00 +12°C° 0 mm 5 mps 763 mmHg 91%
    02:00 +12°C° 0.1 mm 5 mps 763 mmHg 92%
    03:00 +12°C° 0.1 mm 5 mps 763 mmHg 93%
    04:00 +12°C° 0.1 mm 5 mps 763 mmHg 93%
    05:00 +12°C° 0 mm 5 mps 763 mmHg 94%
    06:00 +12°C° 0 mm 5 mps 763 mmHg 94%
    07:00 +12°C° 0 mm 5 mps 763 mmHg 94%
    08:00 +13°C° 0 mm 5 mps 763 mmHg 91%
    09:00 +14°C° 0 mm 6 mps 763 mmHg 88%
    10:00 +15°C° 0 mm 6 mps 763 mmHg 85%
    11:00 +15°C° 0.1 mm 6 mps 762 mmHg 83%
    12:00 +15°C° 0.1 mm 6 mps 762 mmHg 82%
    13:00 +16°C° 0.1 mm 6 mps 762 mmHg 80%
    14:00 +15°C° 0.1 mm 6 mps 761 mmHg 83%
    15:00 +14°C° 0.1 mm 6 mps 761 mmHg 87%
    16:00 +14°C° 0.1 mm 6 mps 761 mmHg 90%
    17:00 +14°C° 0.1 mm 6 mps 761 mmHg 91%
    18:00 +13°C° 0.1 mm 6 mps 761 mmHg 92%
    19:00 +13°C° 0.1 mm 6 mps 761 mmHg 93%
    20:00 +13°C° 0.7 mm 5 mps 760 mmHg 94%
    21:00 +13°C° 0.7 mm 5 mps 760 mmHg 95%
    22:00 +13°C° 0.7 mm 4 mps 760 mmHg 95%
    23:00 +13°C° 0.7 mm 4 mps 760 mmHg 95%

    Tomorrow, 14 December, Thursday

    Time Temperature Precipitation Wind Pressure Humidity
    00:00 +13°C° 0.7 mm 4 mps 760 mmHg 95%
    01:00 +13°C° 0.7 mm 3 mps 760 mmHg 94%
    02:00 +12°C° 0.1 mm 4 mps 760 mmHg 93%
    03:00 +12°C° 0.1 mm 4 mps 759 mmHg 92%
    04:00 +12°C° 0.1 mm 4 mps 759 mmHg 91%
    05:00 +12°C° 0 mm 4 mps 759 mmHg 91%
    06:00 +10°C° 0 mm 5 mps 760 mmHg 92%
    07:00 +10°C° 0 mm 5 mps 760 mmHg 92%
    08:00 +12°C° 0 mm 4 mps 760 mmHg 86%
    09:00 +13°C° 0 mm 4 mps 760 mmHg 81%
    10:00 +13°C° 0 mm 3 mps 761 mmHg 76%
    11:00 +14°C° 0 mm 3 mps 760 mmHg 71%
    12:00 +15°C° 0 mm 2 mps 760 mmHg 66%
    13:00 +15°C° 0 mm 2 mps 760 mmHg 61%
    14:00 +14°C° 0 mm 2 mps 760 mmHg 64%
    15:00 +14°C° 0 mm 2 mps 760 mmHg 68%
    16:00 +13°C° 0 mm 2 mps 760 mmHg 71%
    17:00 +12°C° 0 mm 2 mps 760 mmHg 73%
    18:00 +12°C° 0 mm 2 mps 760 mmHg 76%
    19:00 +10°C° 0 mm 2 mps 761 mmHg 78%
    20:00 +10°C° 0 mm 3 mps 761 mmHg 79%
    21:00 +10°C° 0 mm 3 mps 760 mmHg 80%
    22:00 +8°C° 0 mm 4 mps 760 mmHg 81%
    23:00 +8°C° 0 mm 4 mps 760 mmHg 80%

    Day after tomorrow, 15 December, Friday

    Time Temperature Precipitation Wind Pressure Humidity
    00:00 +8°C° 0 mm 4 mps 760 mmHg 79%
    01:00 +8°C° 0 mm 4 mps 760 mmHg 78%
    02:00 +8°C° 0 mm 4 mps 760 mmHg 78%
    03:00 +8°C° 0 mm 5 mps 759 mmHg 78%
    04:00 +8°C° 0 mm 5 mps 759 mmHg 78%
    05:00 +8°C° 0 mm 5 mps 759 mmHg 80%
    06:00 +8°C° 0 mm 5 mps 759 mmHg 81%
    07:00 +8°C° 0 mm 6 mps 759 mmHg 83%
    08:00 +9°C° 0 mm 6 mps 759 mmHg 82%
    09:00 +11°C° 0 mm 7 mps 759 mmHg 82%
    10:00 +12°C° 0 mm 7 mps 759 mmHg 82%
    11:00 +12°C° 0 mm 7 mps 758 mmHg 82%
    12:00 +12°C° 0 mm 7 mps 758 mmHg 83%
    13:00 +13°C° 0 mm 8 mps 757 mmHg 84%
    14:00 +12°C° 0.1 mm 7 mps 757 mmHg 86%
    15:00 +12°C° 0.1 mm 7 mps 757 mmHg 89%
    16:00 +11°C° 0.1 mm 7 mps 757 mmHg 91%
    17:00 +11°C° 0.2 mm 7 mps 757 mmHg 92%
    18:00 +11°C° 0.2 mm 7 mps 757 mmHg 92%
    19:00 +11°C° 0.2 mm 7 mps 757 mmHg 93%
    20:00 +11°C° 0.3 mm 7 mps 757 mmHg 93%
    21:00 +11°C° 0.3 mm 8 mps 757 mmHg 93%
    22:00 +11°C° 0.3 mm 8 mps 757 mmHg 93%
    23:00 +11°C° 0.2 mm 8 mps 757 mmHg 93%

    16 December, Saturday

    Time Temperature Precipitation Wind Pressure Humidity
    00:00 +11°C° 0.2 mm 8 mps 756 mmHg 93%
    01:00 +11°C° 0.2 mm 8 mps 756 mmHg 94%
    02:00 +12°C° 0.1 mm 8 mps 756 mmHg 95%
    03:00 +12°C° 0.1 mm 8 mps 755 mmHg 95%
    04:00 +12°C° 0.1 mm 8 mps 755 mmHg 96%
    05:00 +12°C° 0.1 mm 9 mps 755 mmHg 96%
    06:00 +12°C° 0.1 mm 9 mps 755 mmHg 96%
    07:00 +12°C° 0.1 mm 9 mps 755 mmHg 96%
    08:00 +13°C° 0.1 mm 9 mps 755 mmHg 94%
    09:00 +13°C° 0.1 mm 9 mps 754 mmHg 92%
    10:00 +15°C° 0.1 mm 9 mps 754 mmHg 91%
    11:00 +14°C° 0.2 mm 10 mps 753 mmHg 89%
    12:00 +14°C° 0.2 mm 10 mps 753 mmHg 88%
    13:00 +14°C° 0.2 mm 10 mps 752 mmHg 87%
    14:00 +14°C° 2.3 mm 11 mps 751 mmHg 90%
    15:00 +14°C° 2.3 mm 12 mps 751 mmHg 92%
    16:00 +13°C° 2.3 mm 13 mps 750 mmHg 95%
    17:00 +13°C° 5.5 mm 13 mps 750 mmHg 95%
    18:00 +13°C° 5.5 mm 13 mps 750 mmHg 95%
    19:00 +12°C° 5.5 mm 14 mps 749 mmHg 96%
    20:00 +12°C° 5 mm 12 mps 749 mmHg 96%
    21:00 +12°C° 5 mm 10 mps 749 mmHg 96%
    22:00 +12°C° 5 mm 8 mps 749 mmHg 96%
    23:00 +12°C° 2 mm 9 mps 749 mmHg 96%

    17 December, Sunday

    Time Temperature Precipitation Wind Pressure Humidity
    00:00 +12°C° 2 mm 9 mps 750 mmHg 96%
    01:00 +12°C° 2 mm 9 mps 750 mmHg 96%
    02:00 +11°C° 0.2 mm 8 mps 751 mmHg 94%
    03:00 +11°C° 0.2 mm 8 mps 751 mmHg 92%
    04:00 +10°C° 0.2 mm 7 mps 752 mmHg 90%
    05:00 +10°C° 0 mm 6 mps 753 mmHg 89%
    06:00 +10°C° 0 mm 6 mps 754 mmHg 87%
    07:00 +9°C° 0 mm 5 mps 754 mmHg 85%
    08:00 +11°C° 0.1 mm 4 mps 755 mmHg 81%
    09:00 +11°C° 0.1 mm 4 mps 755 mmHg 76%
    10:00 +12°C° 0.1 mm 4 mps 756 mmHg 71%
    11:00 +12°C° 0.3 mm 4 mps 756 mmHg 72%
    12:00 +11°C° 0.3 mm 4 mps 756 mmHg 73%
    13:00 +11°C° 0.3 mm 4 mps 756 mmHg 74%
    14:00 +11°C° 0.2 mm 4 mps 756 mmHg 76%
    15:00 +11°C° 0.2 mm 4 mps 757 mmHg 78%
    16:00 +10°C° 0.2 mm 4 mps 757 mmHg 80%
    17:00 +10°C° 0.1 mm 4 mps 757 mmHg 80%
    18:00 +8°C° 0.1 mm 4 mps 758 mmHg 81%
    19:00 +8°C° 0.1 mm 5 mps 759 mmHg 82%
    20:00 +8°C° 0 mm 5 mps 759 mmHg 83%
    21:00 +7°C° 0 mm 5 mps 760 mmHg 83%
    22:00 +7°C° 0 mm 5 mps 760 mmHg 84%
    23:00 +7°C° 0 mm 5 mps 760 mmHg 84%

    18 December, Monday

    Time Temperature Precipitation Wind Pressure Humidity
    00:00 +7°C° 0 mm 6 mps 761 mmHg 84%
    01:00 +5°C° 0 mm 6 mps 761 mmHg 85%
    02:00 +5°C° 0 mm 6 mps 761 mmHg 84%
    03:00 +5°C° 0 mm 6 mps 761 mmHg 84%
    04:00 +5°C° 0 mm 6 mps 761 mmHg 84%
    05:00 +4°C° 0 mm 6 mps 762 mmHg 84%
    06:00 +5°C° 0 mm 5 mps 762 mmHg 84%
    07:00 +5°C° 0 mm 5 mps 762 mmHg 83%
    08:00 +6°C° 0 mm 5 mps 763 mmHg 78%
    09:00 +7°C° 0 mm 6 mps 763 mmHg 72%
    10:00 +8°C° 0 mm 6 mps 763 mmHg 66%
    11:00 +8°C° 0 mm 6 mps 763 mmHg 63%
    12:00 +8°C° 0 mm 7 mps 763 mmHg 60%
    13:00 +8°C° 0 mm 7 mps 763 mmHg 57%
    14:00 +6°C° 0 mm 7 mps 763 mmHg 59%
    15:00 +6°C° 0 mm 7 mps 763 mmHg 61%
    16:00 +5°C° 0 mm 7 mps 763 mmHg 63%
    17:00 +4°C° 0 mm 7 mps 763 mmHg 63%
    18:00 +3°C° 0 mm 7 mps 764 mmHg 64%
    19:00 +2°C° 0 mm 7 mps 764 mmHg 65%
    20:00 +2°C° 0 mm 6 mps 764 mmHg 65%
    21:00 +2°C° 0 mm 6 mps 764 mmHg 65%
    22:00 +2°C° 0 mm 6 mps 765 mmHg 65%
    23:00 +2°C° 0 mm 5 mps 765 mmHg 65%
    Show more